• In India
  • List of Countries
  • For 7 days
  • Water Temperature
  • Satellite Maps
  • Weather Map
  • Weather Widgets
  • user-avatar
    Login

    Hourly Weather Zalyshany

    Today, 21 September, Friday

    Time Temperature Precipitation Wind Pressure Humidity
    00:00 +19°C° 0 mm 1 mps 750 mmHg 71%
    01:00 +18°C° 0 mm 1 mps 750 mmHg 73%
    02:00 +16°C° 0 mm 0 mps 750 mmHg 75%
    03:00 +16°C° 0 mm 0 mps 750 mmHg 76%
    04:00 +15°C° 0 mm 0 mps 750 mmHg 78%
    05:00 +15°C° 0 mm 0 mps 750 mmHg 79%
    06:00 +18°C° 0 mm 1 mps 750 mmHg 75%
    07:00 +20°C° 0 mm 1 mps 751 mmHg 70%
    08:00 +21°C° 0 mm 1 mps 751 mmHg 66%
    09:00 +23°C° 0 mm 1 mps 751 mmHg 60%
    10:00 +25°C° 0 mm 2 mps 751 mmHg 54%
    11:00 +27°C° 0 mm 2 mps 751 mmHg 48%
    12:00 +27°C° 0 mm 2 mps 750 mmHg 45%
    13:00 +28°C° 0 mm 3 mps 750 mmHg 43%
    14:00 +28°C° 0 mm 3 mps 750 mmHg 40%
    15:00 +27°C° 0 mm 3 mps 749 mmHg 44%
    16:00 +27°C° 0 mm 2 mps 749 mmHg 47%
    17:00 +26°C° 0 mm 2 mps 749 mmHg 51%
    18:00 +24°C° 0 mm 2 mps 749 mmHg 54%
    19:00 +21°C° 0 mm 2 mps 749 mmHg 58%
    20:00 +20°C° 0 mm 2 mps 749 mmHg 62%
    21:00 +19°C° 0 mm 2 mps 748 mmHg 63%
    22:00 +19°C° 0 mm 2 mps 748 mmHg 64%
    23:00 +18°C° 0 mm 3 mps 748 mmHg 65%

    Tomorrow, 22 September, Saturday

    Time Temperature Precipitation Wind Pressure Humidity
    00:00 +18°C° 0 mm 3 mps 748 mmHg 66%
    01:00 +17°C° 0 mm 3 mps 748 mmHg 66%
    02:00 +17°C° 0 mm 3 mps 748 mmHg 67%
    03:00 +17°C° 0 mm 3 mps 748 mmHg 67%
    04:00 +16°C° 0 mm 3 mps 747 mmHg 67%
    05:00 +16°C° 0 mm 3 mps 747 mmHg 68%
    06:00 +17°C° 0 mm 4 mps 747 mmHg 63%
    07:00 +19°C° 0 mm 4 mps 747 mmHg 58%
    08:00 +20°C° 0 mm 5 mps 746 mmHg 54%
    09:00 +22°C° 0 mm 5 mps 746 mmHg 49%
    10:00 +23°C° 0 mm 5 mps 746 mmHg 45%
    11:00 +26°C° 0 mm 6 mps 746 mmHg 40%
    12:00 +27°C° 0 mm 6 mps 746 mmHg 41%
    13:00 +27°C° 0 mm 6 mps 745 mmHg 41%
    14:00 +27°C° 0 mm 5 mps 745 mmHg 41%
    15:00 +25°C° 0 mm 5 mps 745 mmHg 48%
    16:00 +22°C° 0 mm 5 mps 745 mmHg 55%
    17:00 +20°C° 0 mm 5 mps 745 mmHg 62%
    18:00 +17°C° 0.2 mm 6 mps 746 mmHg 66%
    19:00 +15°C° 0.2 mm 6 mps 746 mmHg 70%
    20:00 +11°C° 0.2 mm 6 mps 747 mmHg 74%
    21:00 +10°C° 2.1 mm 6 mps 747 mmHg 79%
    22:00 +9°C° 2.1 mm 5 mps 747 mmHg 84%
    23:00 +8°C° 2.1 mm 5 mps 747 mmHg 89%

    Day after tomorrow, 23 September, Sunday

    Time Temperature Precipitation Wind Pressure Humidity
    00:00 +8°C° 1.8 mm 4 mps 748 mmHg 90%
    01:00 +8°C° 1.8 mm 3 mps 748 mmHg 90%
    02:00 +8°C° 1.8 mm 3 mps 748 mmHg 91%
    03:00 +8°C° 0.1 mm 3 mps 748 mmHg 91%
    04:00 +8°C° 0.1 mm 4 mps 748 mmHg 91%
    05:00 +8°C° 0.1 mm 4 mps 748 mmHg 91%
    06:00 +8°C° 0 mm 4 mps 747 mmHg 89%
    07:00 +10°C° 0 mm 4 mps 747 mmHg 87%
    08:00 +9°C° 0 mm 5 mps 747 mmHg 85%
    09:00 +12°C° 0.1 mm 5 mps 747 mmHg 77%
    10:00 +13°C° 0.1 mm 6 mps 747 mmHg 69%
    11:00 +15°C° 0.1 mm 6 mps 747 mmHg 62%
    12:00 +15°C° 0.3 mm 6 mps 747 mmHg 59%
    13:00 +15°C° 0.3 mm 7 mps 747 mmHg 57%
    14:00 +16°C° 0.3 mm 7 mps 747 mmHg 54%
    15:00 +15°C° 0 mm 6 mps 747 mmHg 55%
    16:00 +15°C° 0 mm 5 mps 748 mmHg 56%
    17:00 +14°C° 0 mm 3 mps 748 mmHg 57%
    18:00 +13°C° 0 mm 3 mps 748 mmHg 60%
    19:00 +12°C° 0 mm 3 mps 748 mmHg 64%
    20:00 +11°C° 0 mm 3 mps 749 mmHg 67%
    21:00 +10°C° 0 mm 3 mps 749 mmHg 69%
    22:00 +9°C° 0 mm 3 mps 749 mmHg 71%
    23:00 +9°C° 0 mm 3 mps 749 mmHg 73%

    24 September, Monday

    Time Temperature Precipitation Wind Pressure Humidity
    00:00 +9°C° 0 mm 3 mps 748 mmHg 73%
    01:00 +8°C° 0 mm 3 mps 748 mmHg 74%
    02:00 +8°C° 0 mm 3 mps 748 mmHg 75%
    03:00 +8°C° 0 mm 3 mps 747 mmHg 75%
    04:00 +8°C° 0 mm 3 mps 747 mmHg 75%
    05:00 +8°C° 0 mm 3 mps 746 mmHg 75%
    06:00 +8°C° 0.1 mm 4 mps 745 mmHg 71%
    07:00 +10°C° 0.1 mm 5 mps 744 mmHg 67%
    08:00 +11°C° 0.1 mm 6 mps 744 mmHg 63%
    09:00 +11°C° 0.9 mm 6 mps 743 mmHg 67%
    10:00 +10°C° 0.9 mm 7 mps 742 mmHg 71%
    11:00 +10°C° 0.9 mm 7 mps 741 mmHg 75%
    12:00 +11°C° 1.2 mm 7 mps 739 mmHg 76%
    13:00 +13°C° 1.2 mm 6 mps 738 mmHg 76%
    14:00 +13°C° 1.2 mm 6 mps 737 mmHg 77%
    15:00 +14°C° 0.6 mm 6 mps 736 mmHg 79%
    16:00 +15°C° 0.6 mm 6 mps 735 mmHg 81%
    17:00 +15°C° 0.6 mm 6 mps 734 mmHg 83%
    18:00 +14°C° 0.5 mm 7 mps 734 mmHg 80%
    19:00 +13°C° 0.5 mm 8 mps 733 mmHg 77%
    20:00 +12°C° 0.5 mm 9 mps 733 mmHg 74%
    21:00 +11°C° 0 mm 9 mps 733 mmHg 74%
    22:00 +10°C° 0 mm 9 mps 733 mmHg 74%
    23:00 +8°C° 0 mm 9 mps 733 mmHg 74%

    25 September, Tuesday

    Time Temperature Precipitation Wind Pressure Humidity
    00:00 +8°C° 0 mm 10 mps 733 mmHg 73%
    01:00 +8°C° 0 mm 10 mps 733 mmHg 72%
    02:00 +8°C° 0 mm 11 mps 733 mmHg 71%
    03:00 +7°C° 0.2 mm 11 mps 733 mmHg 72%
    04:00 +7°C° 0.2 mm 11 mps 734 mmHg 74%
    05:00 +7°C° 0.2 mm 12 mps 734 mmHg 75%
    06:00 +5°C° 0.3 mm 12 mps 734 mmHg 76%
    07:00 +5°C° 0.3 mm 12 mps 735 mmHg 76%
    08:00 +5°C° 0.3 mm 12 mps 736 mmHg 77%
    09:00 +5°C° 0.8 mm 12 mps 737 mmHg 78%
    10:00 +4°C° 0.8 mm 11 mps 738 mmHg 79%
    11:00 +4°C° 0.8 mm 11 mps 739 mmHg 80%
    12:00 +4°C° 0.7 mm 11 mps 740 mmHg 79%
    13:00 +5°C° 0.7 mm 10 mps 741 mmHg 78%
    14:00 +5°C° 0.7 mm 10 mps 742 mmHg 76%
    15:00 +5°C° 0.2 mm 9 mps 743 mmHg 73%
    16:00 +6°C° 0.2 mm 8 mps 743 mmHg 70%
    17:00 +6°C° 0.2 mm 7 mps 744 mmHg 67%
    18:00 +7°C° 0 mm 6 mps 745 mmHg 67%
    19:00 +5°C° 0 mm 6 mps 745 mmHg 67%
    20:00 +5°C° 0 mm 6 mps 746 mmHg 68%
    21:00 +5°C° 0 mm 6 mps 746 mmHg 68%
    22:00 +5°C° 0 mm 6 mps 746 mmHg 68%
    23:00 +4°C° 0 mm 6 mps 746 mmHg 68%

    26 September, Wednesday

    Time Temperature Precipitation Wind Pressure Humidity
    00:00 +5°C° 0 mm 5 mps 746 mmHg 70%
    01:00 +5°C° 0 mm 5 mps 746 mmHg 73%
    02:00 +5°C° 0 mm 4 mps 746 mmHg 75%
    03:00 +5°C° 0 mm 4 mps 746 mmHg 77%
    04:00 +5°C° 0 mm 4 mps 746 mmHg 79%
    05:00 +5°C° 0 mm 3 mps 746 mmHg 82%
    06:00 +5°C° 0.2 mm 3 mps 747 mmHg 83%
    07:00 +7°C° 0.2 mm 3 mps 747 mmHg 83%
    08:00 +7°C° 0.2 mm 3 mps 747 mmHg 84%
    09:00 +8°C° 0 mm 3 mps 748 mmHg 75%
    10:00 +10°C° 0 mm 3 mps 748 mmHg 67%
    11:00 +11°C° 0 mm 4 mps 749 mmHg 58%
    12:00 +12°C° 0 mm 4 mps 749 mmHg 53%
    13:00 +12°C° 0 mm 5 mps 750 mmHg 47%
    14:00 +13°C° 0 mm 5 mps 750 mmHg 42%
    15:00 +12°C° 0 mm 4 mps 750 mmHg 45%
    16:00 +11°C° 0 mm 4 mps 751 mmHg 48%
    17:00 +10°C° 0 mm 3 mps 751 mmHg 52%
    18:00 +9°C° 0 mm 3 mps 752 mmHg 57%
    19:00 +8°C° 0 mm 2 mps 753 mmHg 62%
    20:00 +6°C° 0 mm 2 mps 753 mmHg 67%
    21:00 +6°C° 0 mm 2 mps 754 mmHg 71%
    22:00 +6°C° 0 mm 2 mps 754 mmHg 74%
    23:00 +6°C° 0 mm 1 mps 754 mmHg 78%
    Show more